Location: ????????
(55.0559°N, 39.1270°E)
Time: 23:53:29
(UTC+00:00)

Lacrosse 4 Rocket - Pass Details

Date: 15 November 2025
Orbit: 513 x 567 km, 68.0° (Epoch: 12 December)

Event Time Altitude Azimuth Distance (km) Brightness Sun altitude
Exits shadow 02:45:55 21° 339° (NNW) 1,250 2.9 -18.2°
Maximum altitude 02:48:14 42° 41° (NE) 762 2.2 -17.9°
Drops below altitude 10° 02:52:00 10° 113° (ESE) 1,762 5.1 -17.4°
Sets 02:54:14 0° 121° (ESE) 2,640 6.1 -17.0°
